YUKONSAT

Last updated on Sun Nov 12 2023 00:02:07 GMT+0000 (Coordinated Universal Time)

1 56316U 98067VH 23314.03801477 .05908295 12176-4 10306-2 0 9995 2 56316 51.6126 301.1501 0000576 118.0465 242.0616 16.32067439 31318

Satellite not in orbit